Weather History for Danville, VA

Change the Weather History Date:

Friday, November 19, 2010

  Actual Average Record
Temperature  
Mean Temperature 44 °F 48 °F  
Max Temperature 58 °F 59 °F 79 °F (1953)
Min Temperature 30 °F 37 °F 15 °F (2014)
Degree Days  
Heating Degree Days 21 17  
Month to date heating degree days 314 264  
Since 1 July heating degree days 470 497  
Cooling Degree Days 0 0  
Month to date cooling degree days 0 0  
Year to date cooling degree days 1946 1436  
Moisture  
Dew Point 34 °F    
Average Humidity 69    
Maximum Humidity 100    
Minimum Humidity 38    
Precipitation  
Precipitation 0.00 in 0.10 in 1.50 in (1948)
Month to date precipitation 1.29 2.16  
Year to date precipitation 38.65 39.94  
Snow  
Snow 0.00 in - - ()
Month to date snowfall 0.0  
Since 1 July snowfall 0.0  
Since 1 September snowfall 0.0  
Snow Depth 0.00 in    
Sea Level Pressure  
Sea Level Pressure 30.28 in    
Wind  
Wind Speed 3 mph (WSW)    
Max Wind Speed 10 mph    
Max Gust Speed 14 mph    
Visibility 9 miles    
Events      
T = Trace of Precipitation, MM = Missing Value Source: NWS Daily Summary

Daily Weather History Graph

Daily Weather History Graph

Search for Another Location

Airport:

Trip Planner

Search our weather history database for the weather conditions in past years. The results will help you decide how hot, cold, wet, or windy it might be!

Date:

Astronomy

Nov. 19, 2010 Rise Set
Actual Time 6:59 AM EST 5:06 PM EST
Civil Twilight 6:31 AM EST 5:33 PM EST
Nautical Twilight 5:59 AM EST 6:05 PM EST
Astronomical Twilight 5:29 AM EST 6:35 PM EST
Moon 3:35 PM EST (11/19) 4:56 AM EST (11/19)
Length of Visible Light 11h 02m
Length of Day
10h 07m
Waxing Gibbous, 96% of the Moon is Illuminated
Nov 19
Waxing Gibbous
Nov 21
Full
Nov 28
Last Quarter
Dec 5
New
Dec 13
First Quarter

Hourly Weather History & Observations

Time (EST) Temp. Windchill Dew Point Humidity Pressure Visibility Wind Dir Wind Speed Gust Speed Precip Events Conditions
12:53 AM 36.0 °F - 35.1 °F 97% 30.25 in 9.0 mi Calm Calm - N/A   Partly Cloudy
1:53 AM 36.0 °F - 35.1 °F 97% 30.25 in 7.0 mi Calm Calm - N/A   Clear
2:53 AM 35.1 °F - 33.1 °F 92% 30.27 in 5.0 mi Calm Calm - N/A   Clear
3:53 AM 33.1 °F - 32.0 °F 96% 30.27 in 6.0 mi Calm Calm - N/A   Clear
4:53 AM 30.9 °F - 30.0 °F 96% 30.29 in 5.0 mi Calm Calm - N/A   Clear
5:53 AM 32.0 °F 25.6 °F 30.0 °F 92% 30.30 in 7.0 mi SSW 6.9 mph - N/A   Clear
6:53 AM 32.0 °F 27.5 °F 30.0 °F 92% 30.32 in 5.0 mi SSW 4.6 mph - N/A   Clear
7:53 AM 35.1 °F 31.0 °F 33.1 °F 92% 30.34 in 9.0 mi NW 4.6 mph - N/A   Clear
8:53 AM 45.0 °F 39.7 °F 35.1 °F 68% 30.35 in 10.0 mi NNW 10.4 mph - N/A   Clear
9:53 AM 50.0 °F - 34.0 °F 54% 30.35 in 10.0 mi NNW 9.2 mph - N/A   Clear
10:53 AM 52.0 °F - 30.9 °F 45% 30.34 in 10.0 mi NW 3.5 mph - N/A   Clear
11:53 AM 55.0 °F - 30.9 °F 40% 30.32 in 10.0 mi NNE 3.5 mph - N/A   Clear
12:53 PM 55.0 °F - 30.9 °F 40% 30.28 in 10.0 mi West 4.6 mph - N/A   Clear
1:53 PM 55.9 °F - 32.0 °F 40% 30.27 in 10.0 mi WSW 5.8 mph - N/A   Clear
2:53 PM 57.0 °F - 33.1 °F 40% 30.25 in 10.0 mi WSW 3.5 mph - N/A   Clear
3:53 PM 57.0 °F - 34.0 °F 42% 30.25 in 10.0 mi Variable 3.5 mph - N/A   Clear
4:53 PM 54.0 °F - 36.0 °F 51% 30.26 in 10.0 mi South 3.5 mph - N/A   Clear
5:53 PM 46.9 °F - 37.0 °F 68% 30.27 in 10.0 mi Calm Calm - N/A   Clear
6:53 PM 44.1 °F - 37.0 °F 76% 30.27 in 10.0 mi Calm Calm - N/A   Clear
7:53 PM 46.0 °F 44.8 °F 36.0 °F 68% 30.26 in 10.0 mi South 3.5 mph - N/A   Clear
8:53 PM 41.0 °F 39.0 °F 36.0 °F 82% 30.26 in 10.0 mi SSW 3.5 mph - N/A   Clear
9:53 PM 41.0 °F - 36.0 °F 82% 30.27 in 10.0 mi Calm Calm - N/A   Clear
10:53 PM 41.0 °F 38.0 °F 36.0 °F 82% 30.26 in 10.0 mi SSW 4.6 mph - N/A   Clear
11:53 PM 39.9 °F 37.8 °F 35.1 °F 83% 30.27 in 7.0 mi West 3.5 mph - N/A   Clear